Location: Molino di Ancona
(43.6167°N, 13.3667°E)
Time: 08:18:30
(UTC+00:00)

GEOS 3 Rocket - Pass Details

Date: 15 December 2019
Orbit: 783 x 836 km, 115.0° (Epoch: 18 January)

Event Time Altitude Azimuth Distance (km) Brightness Sun altitude
Rises 04:58:09 0° 152° (SSE) 3,258 7.5 -16.4°
Reaches altitude 10° 05:00:26 10° 156° (SSE) 2,336 6.6 -16.0°
Maximum altitude 05:05:26 60° 236° (WSW) 903 3.7 -15.1°
Enters shadow 05:09:06 19° 312° (NW) 1,827 4.9 -14.5°
